Simultaneous Nadir Overpasses (SNOs) Predictions

Prediction of SNOs between AQUA and GOES-15 Satellite Orbit:

Table of predicted SNOs for the next 14.0 days since TLE Epoch: 5/12/2017
Index Date Time (AQUA) AQUA Lat,Lon GOES-15 Lat,Lon Distance(km) Time Diff (sec)
1 05/13/2017 10:37:59 0.12,-135.60 0.05,-135.15 51.41 80
2 05/15/2017 10:25:47 -0.45,-132.64 0.05,-135.08 277.72 80
3 05/15/2017 22:47:12 -0.59,-137.84 -0.05,-135.12 308.66 80
4 05/17/2017 22:35:00 -0.01,-134.88 -0.05,-135.05 19.74 80
5 05/19/2017 22:22:48 0.57,-131.91 -0.05,-134.98 347.67 80
6 05/20/2017 10:44:04 0.51,-137.08 0.04,-134.90 247.12 80
7 05/22/2017 10:31:52 -0.08,-134.11 0.04,-134.82 79.98 80
8 05/24/2017 10:19:41 -0.73,-131.16 0.04,-134.73 406.18 80
9 05/24/2017 22:41:05 -0.37,-136.35 -0.03,-134.76 181.51 80




NCC Satellite Simultaneous Nadir Overpasses (SNOs) Prediction Service
